User: anonymous   Login
Location: Brno
(49.2000°N, 16.6330°E)
Time: 05:24:47
(UTC+01:00)
Language:

Cosmos 2227 - Orbit

View from above orbital plane
View from above orbital plane
View from above satellite
View from above satellite

Ground track
Ground track

The orbit data is extracted from the following two-line orbital elements,

1 22284U 92093A   15058.67635733 -.00000223  00000-0 -93705-4 0  9997
2 22284 070.9806 197.4092 0019571 355.0292 005.0632 14.13218897143896
Epoch (UTC): 27 February 2015 16:13:57
Eccentricity: 0.0019571
inclination: 70.9806°
perigee height: 834 km
apogee height: 862 km
right ascension of ascending node: 197.4092°
argument of perigee: 355.0292°
revolutions per day: 14.13218897
mean anomaly at epoch: 5.0632°
orbit number at epoch: 14389

The dashed part of the orbit path shows where the satellite is in the earth's shadow,  

DLR